(224441) = 2005 UO484

Discovered at Palomar on 2005-10-22 by NEAT.

Orbit

Orbit type: Main Belt

Note: WebGL enabled browser required.

epoch2024-03-31.0
epoch JD2460400.5
perihelion date2021-09-25.38529
perihelion JD2459482.88529
argument of perihelion (°)275.12395
ascending node (°)83.20460
inclination (°)12.60093
eccentricity0.1715320
perihelion distance (AU)2.1034920
Tisserand w.r.t. Jupiter3.4
ΔV w.r.t. Earth (km/sec)9.9
semimajor axis (AU)2.5390140
mean anomaly (°)223.54582
mean daily motion (°/day)0.24361620
aphelion distance (AU)2.975
period (years)4.05
P-vector [x]0.97575251
P-vector [y]0.06227501
P-vector [z]-0.20983056
Q-vector [x]0.03130436
Q-vector [y]0.90910789
Q-vector [z]0.41538281
absolute magnitude16.77
phase slope0.15
uncertainty0
referenceMPEC 2024-F50
observations used396
oppositions15
arc length (days)8692
first opposition used2000
last opposition used2024
residual rms (arc-secs)0.81
perturbers coarse indicatorM-v
perturbers precise indicator003Ek
first observation date used2000-06-01.0
last observation date used2024-03-19.0
computer nameMPCLINUX
JD of orbit computation2456612.856640
perihelion JD uncertainty (days)3.2805E-04
argument of perihelion uncertainty (°)9.8234E-05
ascending node uncertainty (°)6.3802E-05
inclination uncertainty (°)1.5151E-05
eccentricity uncertainty 3.0810E-07
perihelion distance uncertainty (AU)7.9791E-07
Minimum Orbit Intersection Distances (in AU)
for orbit epoch: 2460400.5, reference: E2024-G95
Mercury1.73251
Venus1.39109
Earth1.14488
Mars0.77319
Jupiter2.57418
Saturn6.40319
Uranus15.5484
Neptune27.4973

Observations

405 total observations over interval: 2000 06 01.31882 – 2024 03 19.610786
These data are available for download (format description).

Date (UT) J2000 RA J2000 Dec Magn Location Ref
2000 06 01.31882 15 48 51.64 -12 37 36.6 21.6 V 691 – Steward Observatory, Kitt Peak-Spacewatch MPS 250441
2000 06 01.34059 15 48 50.29 -12 37 38.5 21.5 V 691 – Steward Observatory, Kitt Peak-Spacewatch MPS 250441
2000 06 01.36839 15 48 48.70 -12 37 42.6 20.3 V 691 – Steward Observatory, Kitt Peak-Spacewatch MPS 250441
2001 10 23.45491 02 57 08.04 -00 50 37.5 19.1   644 – Palomar Mountain/NEAT MPS 235057
2001 10 23.46535 02 57 07.49 -00 50 37.3 19.9   644 – Palomar Mountain/NEAT MPS 235057
2001 10 23.47562 02 57 06.91 -00 50 37.8 20.4   644 – Palomar Mountain/NEAT MPS 235057
2001 11 12.285980 02 36 53.711 -00 20 39.06 19.56 V 645 – Apache Point-Sloan Digital Sky Survey MPS 234274
2001 11 12.289452 02 36 53.498 -00 20 38.29 20.32   645 – Apache Point-Sloan Digital Sky Survey MPS 234274
2001 11 21.271470 02 28 42.617 +00 19 52.87 19.79 V 645 – Apache Point-Sloan Digital Sky Survey MPS 234274
2001 11 21.274942 02 28 42.436 +00 19 54.03 20.51   645 – Apache Point-Sloan Digital Sky Survey MPS 234274
2005 10 22.36314 02 24 01.39 -05 26 19.2 19.7 R 644 – Palomar Mountain/NEAT MPS 153844
2005 10 22.36467 02 24 01.30 -05 26 19.1 19.8 R 644 – Palomar Mountain/NEAT MPS 153844
2005 10 22.38394 02 24 00.11 -05 26 19.6 19.8 R 644 – Palomar Mountain/NEAT MPS 153844
2005 10 22.38767 02 23 59.87 -05 26 19.4 19.5 R 644 – Palomar Mountain/NEAT MPS 153844
2005 10 22.41142 02 23 58.39 -05 26 19.8 19.7 R 644 – Palomar Mountain/NEAT MPS 153844
2005 10 22.41447 02 23 58.21 -05 26 19.8 19.9 R 644 – Palomar Mountain/NEAT MPS 153844
2005 11 01.26851 02 13 59.91 -05 16 16.5 19.1 V 703 – Catalina Sky Survey MPS 153844
2005 11 01.27492 02 13 59.48 -05 16 14.9 19.4 V 703 – Catalina Sky Survey MPS 153844
2005 11 01.28134 02 13 59.08 -05 16 15.6 19.6 V 703 – Catalina Sky Survey MPS 153844
2005 11 01.28779 02 13 58.65 -05 16 14.0 19.6 V 703 – Catalina Sky Survey MPS 153844
2008 04 06.45370 15 55 06.60 -08 45 47.3 20.8 V G96 – Mt. Lemmon Survey MPS 250441
2008 04 06.45986 15 55 06.45 -08 45 47.1 21.1 V G96 – Mt. Lemmon Survey MPS 250441
2008 04 06.46598 15 55 06.31 -08 45 46.2 21.1 V G96 – Mt. Lemmon Survey MPS 250441
2008 04 06.47207 15 55 06.16 -08 45 45.6 21.1 V G96 – Mt. Lemmon Survey MPS 250441
2008 04 25.25396 15 44 03.34 -08 15 31.9 20.7 V 691 – Steward Observatory, Kitt Peak-Spacewatch MPS 248164
2008 04 25.27156 15 44 02.51 -08 15 30.0 20.9 V 691 – Steward Observatory, Kitt Peak-Spacewatch MPS 248164
2008 04 25.28914 15 44 01.64 -08 15 28.6 21.3 V 691 – Steward Observatory, Kitt Peak-Spacewatch MPS 248164
2008 04 27.26046 15 42 25.12 -08 12 41.5 20.7 V 691 – Steward Observatory, Kitt Peak-Spacewatch MPS 248164
2008 04 27.27806 15 42 24.18 -08 12 39.8 21.2 V 691 – Steward Observatory, Kitt Peak-Spacewatch MPS 248164
2008 04 27.29567 15 42 23.30 -08 12 38.3 21.0 V 691 – Steward Observatory, Kitt Peak-Spacewatch MPS 248164
2008 04 30.25358 15 39 50.69 -08 08 46.8 21.0 V 691 – Steward Observatory, Kitt Peak-Spacewatch MPS 248164
2008 04 30.27120 15 39 49.73 -08 08 45.3 20.8 V 691 – Steward Observatory, Kitt Peak-Spacewatch MPS 248164
2008 04 30.28636 15 39 48.89 -08 08 44.3 21.0 V 691 – Steward Observatory, Kitt Peak-Spacewatch MPS 248164
2008 05 01.25939 15 38 56.85 -08 07 33.7 21.0 V 691 – Steward Observatory, Kitt Peak-Spacewatch MPS 248164
2008 05 01.27700 15 38 55.87 -08 07 32.3 21.0 V 691 – Steward Observatory, Kitt Peak-Spacewatch MPS 248164
2008 05 01.29757 15 38 54.75 -08 07 31.4 20.7 V 691 – Steward Observatory, Kitt Peak-Spacewatch MPS 248164
2008 05 08.23136 15 32 22.53 -08 00 49.0   691 – Steward Observatory, Kitt Peak-Spacewatch MPS 248990
2008 05 08.24905 15 32 21.51 -08 00 48.4   691 – Steward Observatory, Kitt Peak-Spacewatch MPS 248990
2008 05 08.26674 15 32 20.43 -08 00 47.3   691 – Steward Observatory, Kitt Peak-Spacewatch MPS 248990
2008 05 29.26693 15 11 41.60 -08 06 08.7 20.3 V G96 – Mt. Lemmon Survey MPS 250441
2008 05 29.27432 15 11 41.17 -08 06 09.3 20.8 V G96 – Mt. Lemmon Survey MPS 250441
2008 05 29.28171 15 11 40.74 -08 06 10.0 20.5 V G96 – Mt. Lemmon Survey MPS 250441
2008 05 29.28910 15 11 40.34 -08 06 10.7 20.7 V G96 – Mt. Lemmon Survey MPS 250441
2009 09 16.40611 02 17 23.13 -08 03 36.4 19.6 V 703 – Catalina Sky Survey MPS 295021
2009 09 16.41449 02 17 22.99 -08 03 39.9 19.9 V 703 – Catalina Sky Survey MPS 295021
2009 09 16.42300 02 17 22.84 -08 03 42.6 20.1 V 703 – Catalina Sky Survey MPS 295021
2009 09 16.43148 02 17 22.63 -08 03 45.6 20.1 V 703 – Catalina Sky Survey MPS 295021
2009 09 25.44175 02 13 32.91 -08 47 47.6 20.3 V 703 – Catalina Sky Survey MPS 296945
2009 09 25.45014 02 13 32.52 -08 47 49.6 19.5 V 703 – Catalina Sky Survey MPS 296945
2009 09 25.45870 02 13 32.16 -08 47 53.3 19.4 V 703 – Catalina Sky Survey MPS 296945
2009 09 25.46720 02 13 31.94 -08 47 55.3 18.3 V 703 – Catalina Sky Survey MPS 296945
2009 10 21.29001 01 51 38.37 -09 52 36.9 18.8 V 703 – Catalina Sky Survey MPS 299399
2009 10 21.29608 01 51 37.90 -09 52 36.6 19.0 V 703 – Catalina Sky Survey MPS 299399
2009 10 21.30205 01 51 37.65 -09 52 36.3 19.2 V 703 – Catalina Sky Survey MPS 299399
2009 10 21.30803 01 51 37.18 -09 52 36.2 18.7 V 703 – Catalina Sky Survey MPS 299399
2009 11 11.21027 01 33 22.35 -08 38 20.5 20.5 V 703 – Catalina Sky Survey MPS 303156
2009 11 11.21748 01 33 22.06 -08 38 19.5 19.9 V 703 – Catalina Sky Survey MPS 303156
2009 11 11.22474 01 33 21.67 -08 38 14.8 19.9 V 703 – Catalina Sky Survey MPS 303156
2009 11 11.23206 01 33 21.38 -08 38 11.8 19.6 V 703 – Catalina Sky Survey MPS 303156
2009 11 18.17920 01 29 21.22 -07 47 31.4 20.3 V 703 – Catalina Sky Survey MPS 304719
2009 11 18.18737 01 29 21.01 -07 47 27.7 20.0 V 703 – Catalina Sky Survey MPS 304719
2009 11 18.19558 01 29 20.65 -07 47 22.9 20.6 V 703 – Catalina Sky Survey MPS 304719
2009 11 18.20381 01 29 20.50 -07 47 19.8 19.9 V 703 – Catalina Sky Survey MPS 304719
2010 01 12.479398 01 46 30.87 +02 47 48.6   C51 – WISE MPS 330671
2010 01 12.611703 01 46 38.52 +02 49 30.2   C51 – WISE MPS 330671
2010 01 12.744135 01 46 46.14 +02 51 12.9   C51 – WISE MPS 330671
2010 01 12.876440 01 46 53.91 +02 52 54.8   C51 – WISE MPS 330671
2010 01 12.94253 01 46 57.72 +02 53 47.2   C51 – WISE MPS 330671
2010 01 12.942656 01 46 57.80 +02 53 46.0   C51 – WISE MPS 330671
2010 01 13.074961 01 47 05.48 +02 55 29.3   C51 – WISE MPS 330671
2010 01 13.141049 01 47 09.31 +02 56 20.7   C51 – WISE MPS 330671
2010 01 13.141176 01 47 09.31 +02 56 20.7   C51 – WISE MPS 330671
2010 01 13.339569 01 47 20.966 +02 58 54.55   C51 – WISE MPS 879278
2010 01 13.472002 01 47 28.78 +03 00 36.0   C51 – WISE MPS 330671
2010 01 13.604307 01 47 36.52 +03 02 18.9   C51 – WISE MPS 330671
2012 04 21.36361 15 29 15.97 -06 21 58.8 20.8 V G96 – Mt. Lemmon Survey MPS 422691
2012 04 21.37189 15 29 15.57 -06 21 57.6 20.7 V G96 – Mt. Lemmon Survey MPS 422691
2012 04 21.38019 15 29 15.18 -06 21 56.4 20.8 V G96 – Mt. Lemmon Survey MPS 422691
2012 05 01.43993 15 20 29.318 -06 03 32.94 20.4 i F51 – Pan-STARRS 1, Haleakala MPS 423565
2012 05 01.45088 15 20 28.678 -06 03 32.15 20.6 i F51 – Pan-STARRS 1, Haleakala MPS 423565
2013 09 08.28841 01 46 11.34 -12 11 53.9 19.9 G G45 – Space Surveillance Telescope, Atom Site MPS 1607865
2013 09 08.30534 01 46 11.09 -12 12 00.4 19.9 G G45 – Space Surveillance Telescope, Atom Site MPS 1607865
2013 09 08.34482 01 46 10.47 -12 12 15.7 19.9 G G45 – Space Surveillance Telescope, Atom Site MPS 1607865
2013 09 08.36368 01 46 10.13 -12 12 22.5 20.2 G G45 – Space Surveillance Telescope, Atom Site MPS 1607865
2013 09 30.38907 01 33 32.98 -14 15 49.4 19.0 V 703 – Catalina Sky Survey MPS 479737
2013 09 30.39411 01 33 32.63 -14 15 49.4 19.4 V 703 – Catalina Sky Survey MPS 479737
2013 09 30.39913 01 33 32.32 -14 15 50.0 18.9 V 703 – Catalina Sky Survey MPS 479737
2013 09 30.40411 01 33 32.12 -14 15 52.1 19.1 V 703 – Catalina Sky Survey MPS 479737
2013 10 06.32561 01 28 14.50 -14 35 11.2 19.2 R H15 – ISON-NM Observatory, Mayhill MPS 481901
2013 10 06.33480 01 28 13.93 -14 35 12.2 19.1 R H15 – ISON-NM Observatory, Mayhill MPS 481901
2013 10 06.34395 01 28 13.46 -14 35 13.7 19.2 R H15 – ISON-NM Observatory, Mayhill MPS 481901
2013 10 06.35314 01 28 12.93 -14 35 14.5 19.4 R H15 – ISON-NM Observatory, Mayhill MPS 481901
